[[{"header":{"parameterUnit":"m.s-1","parameterCategory":1,"la1":30.2991,"la2":30.254,"lo1":-89.0895,"lo2":-89.0444,"dy":0.0017,"dx":0.0017,"nx":28,"ny":28,"refTime":"2024-02-03T09:00:00:Z","depth":0,"parameterNumber":2,"parameterNumberName":"U-component_of_WINDS"},"data":[0,0,0,0,0,0,0,0,0,0,0,0,0,0,0,0,0,0,0,0,0,0,0,0,0,0,0,0,0,0,0,0,0,0,0,0,0,0,0,0,0,0,0,0,0,0,0,0,0,0,0,0,0,0,0,0,0,0,-10.3548,-10.3546,0,-10.3341,-10.3338,-10.3336,-10.3055,-10.305,-10.3045,-10.3041,-10.2825,-10.2823,-10.2822,0,0,0,0,0,0,0,0,0,0,0,0,0,-10.3701,-10.37,-10.3549,-10.3546,-10.3543,-10.3341,-10.3338,-10.3335,-10.3056,-10.305,-10.3044,-10.3039,-10.2825,-10.2824,-10.2822,0,0,0,0,0,0,0,0,0,0,0,0,0,-10.3579,-10.37,-10.3549,-10.338,-10.3362,-10.3341,-10.3338,-10.3334,-10.3057,-10.305,-10.3043,-10.3036,-10.2826,-10.2824,-10.2822,-10.2949,0,0,-10.2815,-10.2814,0,0,0,0,0,0,0,0,-10.3586,-10.3573,-10.3407,-10.3391,-10.3372,-10.3216,-10.3312,-10.3205,-10.3059,-10.3173,-10.3041,-10.3033,-10.2961,-10.2947,-10.2923,-10.2939,-10.293,-10.2815,-10.2814,-10.2813,-10.2812,0,0,0,0,0,0,0,-10.3595,-10.3581,-10.3466,-10.3405,-10.3383,-10.3313,-10.3288,-10.3291,-10.3108,-10.3162,-10.3141,-10.3121,-10.2949,-10.2926,-10.2916,-10.2927,-10.2815,-10.2813,-10.2812,-10.2811,-10.3035,-10.3042,0,0,0,0,0,0,-10.3629,-10.359,-10.3472,-10.346,-10.3464,-10.3316,-10.3288,-10.3273,-10.3108,-10.3076,-10.3127,-10.3108,-10.2933,-10.2919,-10.2907,-10.3043,-10.2813,-10.2811,-10.281,-10.3028,-10.3037,-10.3045,0,0,0,0,0,0,-10.3633,-10.3621,-10.3481,-10.3519,-10.3496,-10.3321,-10.3307,-10.3273,-10.3249,-10.3081,-10.3047,-10.3136,-10.2927,-10.291,-10.2941,-10.3032,-10.281,-10.2808,-10.302,-10.3031,-10.3041,-10.3319,0,0,0,0,0,0,-10.3639,-10.3624,-10.3671,-10.3522,-10.3495,-10.3519,-10.3313,-10.3274,-10.3246,-10.322,-10.3081,-10.3051,-10.292,-10.2946,-10.2939,-10.3025,-10.2807,-10.301,-10.3025,-10.3037,-10.3301,-10.3338,-10.337,0,0,0,0,0,-10.3645,-10.3758,-10.3675,-10.3663,-10.355,-10.3525,-10.3509,-10.3357,-10.3255,-10.33,-10.3193,-10.3055,-10.3025,-10.2951,-10.2941,-10.3028,-10.3004,-10.3021,-10.3036,-10.3285,-10.3331,-10.3369,0,0,0,0,0,0,-10.392,-10.3735,-10.3641,-10.3709,-10.3635,-10.3478,-10.353,-10.3411,-10.3363,-10.3341,-10.3153,-10.3124,-10.3178,-10.3106,-10.3028,-10.3142,-10.2994,-10.3009,-10.3186,-10.3228,-10.3262,-10.3276,-10.2805,0,0,0,0,0,-10.399,-10.3986,-10.3823,-10.3898,-10.3866,-10.3706,-10.3689,-10.3579,-10.3495,-10.3461,-10.3356,-10.3278,-10.325,-10.3236,-10.3201,-10.3291,-10.3255,-10.3346,-10.3381,-10.341,-10.3424,-10.3464,-10.3501,-10.3098,-10.3098,-10.3097,0,0,-10.4131,-10.4029,-10.4037,-10.3951,-10.3881,-10.388,-10.3681,-10.3688,-10.3685,-10.3462,-10.3483,-10.3405,-10.3305,-10.3366,-10.3387,-10.3308,-10.3528,-10.3431,-10.3455,-10.3452,-10.3484,-10.3523,-10.3557,-10.3109,-10.3107,-10.3105,0,0,-10.4386,-10.4311,-10.4364,-10.4299,-10.4195,-10.4088,-10.4102,-10.3963,-10.3902,-10.3922,-10.3754,-10.3748,-10.3705,-10.3641,-10.3603,-10.3839,-10.371,-10.3834,-10.4012,-10.4053,-10.4085,-10.4112,-10.4193,-10.4225,-10.3849,-10.3849,-10.385,0,-10.4574,-10.4566,-10.4406,-10.4424,-10.439,-10.4191,-10.4243,-10.4187,-10.4079,-10.406,-10.3974,-10.3916,-10.3835,-10.3877,-10.3935,-10.3912,-10.3919,-10.3846,-10.4094,-10.4119,-10.4142,-10.4217,-10.4249,-10.3865,-10.3863,-10.3861,-10.386,0,-10.4801,-10.4799,-10.4855,-10.4756,-10.4729,-10.4765,-10.4609,-10.4601,-10.4495,-10.4398,-10.442,-10.4317,-10.4258,-10.426,-10.4156,-10.4288,-10.4241,-10.4128,-10.3973,-10.4199,-10.4266,-10.4294,-10.3887,-10.3881,-10.3877,-10.3873,0,0,-10.5219,-10.5034,-10.5057,-10.5009,-10.4883,-10.4877,-10.4905,-10.4848,-10.4844,-10.4777,-10.4793,-10.4763,-10.4657,-10.4615,-10.4502,-10.4539,-10.4729,-10.4419,-10.4414,-10.4478,-10.4865,-10.4948,-10.4984,-10.4646,-10.4651,-10.4654,-10.4872,0,-10.5448,-10.5482,-10.534,-10.5412,-10.5407,-10.5219,-10.5242,-10.5167,-10.5078,-10.506,-10.496,-10.4941,-10.4805,-10.4777,-10.4806,-10.4701,-10.4804,-10.4683,-10.4655,-10.4656,-10.4682,-10.502,-10.5107,-10.5317,-10.4898,-10.4902,-10.4905,0,-10.5717,-10.5666,-10.5738,-10.5608,-10.56,-10.5624,-10.556,-10.5547,-10.5458,-10.539,-10.5345,-10.5216,-10.5232,-10.5089,-10.5107,-10.5029,-10.501,-10.4957,-10.4961,-10.4948,-10.4791,-10.5013,-10.5381,-10.5411,-10.4946,-10.4942,-10.4939,0,-10.6011,-10.5961,-10.5996,-10.5962,-10.5812,-10.5833,-10.5771,-10.5676,-10.5651,-10.5597,-10.5578,-10.5527,-10.5498,-10.546,-10.532,-10.523,-10.5354,-10.52,-10.5296,-10.53,-10.5326,-10.5325,-10.5692,-10.5323,-10.5322,-10.5322,-10.5321,0,-10.6278,-10.6328,-10.6126,-10.6147,-10.6198,-10.6036,-10.609,-10.601,-10.5927,-10.5929,-10.5766,-10.5771,-10.5588,-10.5572,-10.5463,-10.5494,-10.5483,-10.5426,-10.5396,-10.5438,-10.5445,-10.5419,-10.54,-10.533,-10.5328,-10.5326,-10.5325,0,-10.6612,-10.6479,-10.6505,-10.6363,-10.6328,-10.6372,-10.6249,-10.6262,-10.6165,-10.6169,-10.6161,-10.6007,-10.598,-10.5839,-10.5779,-10.5706,-10.5773,-10.5715,-10.5803,-10.5782,-10.5885,-10.5876,-10.6244,-10.6283,-10.5894,-10.5898,-10.5902,0,-10.6788,-10.6823,-10.6685,-10.6675,-10.6622,-10.6609,-10.6583,-10.6426,-10.6406,-10.6309,-10.6334,-10.6295,-10.6255,-10.6222,-10.6103,-10.6057,-10.5994,-10.6126,-10.5985,-10.6027,-10.5991,-10.5989,-10.599,-10.6155,-10.616,-10.6164,-10.6168,0,-10.7115,-10.7048,-10.7018,-10.6967,-10.6942,-10.6893,-10.6834,-10.6836,-10.6661,-10.6647,-10.6619,-10.6589,-10.6529,-10.6491,-10.6426,-10.636,-10.6235,-10.6214,-10.6233,-10.6274,-10.6322,-10.6294,-10.5881,-10.6205,-10.6201,-10.6198,-10.6196,-10.6195,-10.7372,-10.7394,-10.7301,-10.7273,-10.7213,-10.7163,-10.7168,-10.7072,-10.7047,-10.6986,-10.6896,-10.688,-10.679,-10.6689,-10.6635,-10.6619,-10.6547,-10.6576,-10.6582,-10.659,-10.6611,-10.633,-10.6607,-10.6606,-10.6605,-10.6604,-10.6603,0,-10.7687,-10.7619,-10.7596,-10.7519,-10.7498,-10.7386,-10.7316,-10.7304,-10.7293,-10.7222,-10.7186,-10.7154,-10.7118,-10.6999,-10.695,-10.696,-10.6901,-10.6952,-10.6947,-10.6934,-10.668,-10.6666,-10.7,-10.7,-10.7,-10.7,-10.7,-10.7,-10.7848,-10.7878,-10.7801,-10.78,-10.773,-10.7714,-10.7684,-10.7636,-10.7578,-10.755,-10.7519,-10.7443,-10.7352,-10.7295,-10.7256,-10.7222,-10.721,-10.7279,-10.7226,-10.699,-10.6952,-10.6915,-10.6901,-10.7279,-10.728,-10.748,-10.7482,-10.7483]},{"header":{"parameterUnit":"m.s-1","parameterCategory":1,"la1":30.2991,"la2":30.254,"lo1":-89.0895,"lo2":-89.0444,"dy":0.0017,"dx":0.0017,"nx":28,"ny":28,"refTime":"2024-02-03T09:00:00:Z","depth":0,"parameterNumber":3,"parameterNumberName":"V-component_of_WINDS"},"data":[0,0,0,0,0,0,0,0,0,0,0,0,0,0,0,0,0,0,0,0,0,0,0,0,0,0,0,0,0,0,0,0,0,0,0,0,0,0,0,0,0,0,0,0,0,0,0,0,0,0,0,0,0,0,0,0,0,0,1.8791,1.8792,0,1.8856,1.8857,1.8858,1.8877,1.8877,1.8877,1.8876,1.8942,1.8944,1.8946,0,0,0,0,0,0,0,0,0,0,0,0,0,1.8682,1.8684,1.8791,1.8792,1.8793,1.8856,1.8857,1.8858,1.8877,1.8877,1.8877,1.8876,1.8941,1.8943,1.8946,0,0,0,0,0,0,0,0,0,0,0,0,0,1.8737,1.8685,1.8791,1.881,1.8812,1.8856,1.8857,1.8858,1.8878,1.8877,1.8877,1.8876,1.894,1.8943,1.8946,1.8975,0,0,1.8955,1.8957,0,0,0,0,0,0,0,0,1.8734,1.8741,1.8806,1.8809,1.8812,1.8858,1.8843,1.8897,1.8878,1.8853,1.8876,1.8876,1.8914,1.8919,1.8933,1.8978,1.8981,1.8956,1.8958,1.8959,1.896,0,0,0,0,0,0,0,1.873,1.8738,1.8817,1.8807,1.8811,1.8815,1.8822,1.8853,1.8885,1.8855,1.8857,1.8864,1.8915,1.893,1.8934,1.8982,1.8956,1.8958,1.896,1.8961,1.9055,1.9056,0,0,0,0,0,0,1.8723,1.8735,1.8815,1.8819,1.8771,1.8818,1.8826,1.8844,1.8885,1.8891,1.8864,1.8865,1.8925,1.8931,1.8937,1.8974,1.8959,1.8962,1.8963,1.9055,1.9055,1.9056,0,0,0,0,0,0,1.8721,1.873,1.8812,1.8777,1.8788,1.882,1.884,1.8845,1.886,1.8892,1.8898,1.8873,1.8924,1.8932,1.8966,1.8977,1.8963,1.8966,1.9054,1.9055,1.9056,1.9049,0,0,0,0,0,0,1.8717,1.8729,1.874,1.8777,1.879,1.884,1.8841,1.8847,1.8865,1.8866,1.8902,1.8907,1.8925,1.8961,1.8969,1.8981,1.8968,1.9053,1.9054,1.9056,1.9049,1.905,1.9051,0,0,0,0,0,1.8713,1.8735,1.8741,1.875,1.8805,1.8841,1.8848,1.8868,1.8866,1.8878,1.8899,1.8906,1.8974,1.8964,1.8973,1.8986,1.9052,1.9054,1.9055,1.9048,1.905,1.9051,0,0,0,0,0,0,1.8698,1.874,1.8747,1.8781,1.8808,1.8844,1.886,1.8869,1.8896,1.8895,1.8918,1.8926,1.8958,1.8975,1.8964,1.9017,1.9014,1.9017,1.9005,1.9007,1.9008,1.9003,1.8971,0,0,0,0,0,1.8698,1.8724,1.876,1.8787,1.88,1.8827,1.8844,1.8857,1.8885,1.8896,1.8919,1.8946,1.8973,1.8991,1.9017,1.9051,1.906,1.9064,1.9065,1.9066,1.9069,1.9089,1.9092,1.9061,1.9061,1.9061,0,0,1.87,1.8726,1.8741,1.8784,1.8806,1.8833,1.8837,1.8864,1.8884,1.89,1.8934,1.8952,1.8982,1.9016,1.9032,1.9032,1.908,1.9068,1.9069,1.9071,1.9091,1.9094,1.9097,1.9062,1.9062,1.9062,0,0,1.8716,1.8738,1.8764,1.8786,1.8819,1.8838,1.8844,1.888,1.8893,1.8927,1.894,1.8963,1.901,1.9032,1.9049,1.9075,1.9083,1.9083,1.9089,1.9109,1.9111,1.9114,1.9124,1.9128,1.9085,1.9085,1.9085,0,1.8713,1.8754,1.8776,1.8803,1.8823,1.8839,1.8865,1.8885,1.8925,1.8938,1.8937,1.8996,1.9018,1.9058,1.9065,1.9077,1.9086,1.9079,1.9109,1.9112,1.9114,1.9125,1.9128,1.9085,1.9085,1.9085,1.9085,0,1.875,1.8779,1.8795,1.8835,1.8856,1.8882,1.8908,1.8926,1.8938,1.8956,1.8992,1.9018,1.9052,1.9062,1.9073,1.9104,1.9103,1.9105,1.9102,1.9117,1.9127,1.9131,1.9085,1.9085,1.9085,1.9085,0,0,1.8758,1.881,1.8816,1.8835,1.8874,1.8896,1.8923,1.8957,1.8973,1.9,1.9024,1.9064,1.9067,1.9086,1.91,1.9117,1.9138,1.9117,1.9118,1.9121,1.9175,1.9174,1.9178,1.9143,1.9144,1.9144,1.9173,0,1.8781,1.8832,1.8852,1.8894,1.8921,1.8937,1.8961,1.8987,1.9006,1.9031,1.9051,1.9079,1.908,1.9092,1.911,1.9131,1.9149,1.9129,1.9166,1.9167,1.9159,1.9183,1.9182,1.9208,1.9177,1.9177,1.9178,0,1.8813,1.8842,1.8887,1.8924,1.8936,1.8957,1.899,1.9014,1.9044,1.9057,1.9079,1.9092,1.9122,1.9117,1.9159,1.9145,1.9161,1.9174,1.9176,1.9181,1.9174,1.919,1.9216,1.922,1.9184,1.9184,1.9183,0,1.8817,1.8867,1.89,1.8916,1.8959,1.8974,1.8992,1.9022,1.9041,1.907,1.9083,1.9114,1.9132,1.9155,1.9177,1.917,1.9217,1.9213,1.9228,1.9228,1.9238,1.9238,1.9268,1.9246,1.9246,1.9246,1.9246,0,1.884,1.8867,1.8903,1.8923,1.8954,1.8977,1.9007,1.9027,1.9053,1.9078,1.9093,1.9116,1.9142,1.9168,1.9185,1.9218,1.9225,1.9236,1.924,1.9236,1.9234,1.9247,1.9247,1.9247,1.9247,1.9247,1.9247,0,1.8849,1.8874,1.8912,1.895,1.896,1.8982,1.9014,1.9035,1.9054,1.9086,1.9094,1.9124,1.9156,1.918,1.922,1.9231,1.9267,1.9271,1.9257,1.926,1.9274,1.9273,1.9316,1.9323,1.9295,1.9295,1.9295,0,1.8863,1.8885,1.8926,1.8944,1.8963,1.8992,1.9012,1.9036,1.9056,1.9093,1.9109,1.9143,1.917,1.9221,1.9246,1.9277,1.9283,1.9295,1.9288,1.9283,1.9285,1.9284,1.9287,1.9297,1.9297,1.9297,1.9297,0,1.8886,1.8897,1.8926,1.896,1.8984,1.9011,1.9039,1.9053,1.9081,1.9104,1.9137,1.9159,1.9201,1.9234,1.9269,1.9288,1.9298,1.93,1.9305,1.9301,1.9293,1.9299,1.9262,1.9299,1.9299,1.9298,1.9298,1.9298,1.8899,1.8919,1.8952,1.8984,1.9007,1.9033,1.9055,1.9078,1.9106,1.9144,1.9155,1.919,1.9221,1.9268,1.9288,1.9315,1.9315,1.9323,1.9325,1.9327,1.9327,1.9288,1.9321,1.9321,1.9321,1.9321,1.9321,0,1.8924,1.8946,1.8975,1.9014,1.9039,1.9047,1.9078,1.9099,1.913,1.9158,1.9186,1.9225,1.9257,1.9285,1.9319,1.9336,1.9341,1.9344,1.9343,1.9348,1.9325,1.9317,1.9339,1.9339,1.9339,1.9339,1.9339,1.9339,1.8939,1.8975,1.8991,1.9038,1.906,1.9095,1.9112,1.9136,1.9159,1.9202,1.923,1.9248,1.9277,1.9313,1.9343,1.9351,1.9363,1.9365,1.9373,1.9351,1.9349,1.9347,1.9341,1.9367,1.9367,1.9394,1.9395,1.9395]}]]